カタログに戻る

BREEZE-M DEB

LostHEO
NORAD 38644·DEBRIS·🇷🇺 Russia

打ち上げ Mar 14, 2008 から Baikonur Cosmodrome

Loading…

次のパス (今後24時間)

TLE

古いSource: Space-Track

元期: Feb 23, 2015, 21:22 UTC

1 38644U 08011CT  15054.89036693  .00006627  00000-0  91808-2 0  9993
2 38644  49.3360 281.6706 6429062 113.1157 357.7154  3.31983178 45914

AllMySatでBREEZE-M DEBをリアルタイム追跡

Download on the App Store